Theta_e
301 301 301 301 301 302 302 302 302 302 302 302 301 300 299 300 304 309 313 315 316 317 318 319 318 317 319 320 320 318 316 315 316 317 317 318 319 319 318 317 317 318 318 317 316 315 314 312 308 306 304 302 301 300 300 301 302 304 305 306 306 306
301 300 300 301 301 301 301 302 302 302 302 302 302 301 300 299 300 304 310 313 315 316 316 317 316 316 317 318 318 317 316 315 315 316 317 318 318 317 317 316 316 316 316 316 315 313 311 309 306 304 303 301 301 301 302 303 305 306 306 306 305 304
300 300 300 300 300 300 301 301 302 302 301 301 301 301 301 300 299 301 306 311 314 315 315 315 315 314 315 316 316 316 316 315 314 315 316 316 316 316 316 315 315 315 315 314 313 312 309 307 306 304 302 302 302 302 304 305 306 306 306 304 302 299
299 299 299 300 300 301 301 301 301 301 300 300 300 300 300 301 300 299 303 309 312 314 315 315 314 313 312 314 314 314 315 315 314 314 314 314 315 315 314 314 314 313 313 312 311 310 308 307 305 303 302 302 303 304 305 306 306 305 304 301 297 295
299 299 299 300 301 301 301 301 301 301 300 300 299 299 299 300 300 299 301 306 310 312 314 315 314 312 311 312 313 314 314 314 313 313 313 313 313 313 313 313 312 312 312 311 310 310 308 305 304 303 302 303 304 305 306 305 305 303 300 298 296 295
298 298 299 300 300 300 300 299 300 300 299 298 298 298 299 299 300 300 300 303 308 311 312 314 315 313 311 312 313 313 314 314 313 312 312 311 311 311 312 311 311 311 310 310 309 308 307 304 302 302 303 304 305 305 305 304 303 301 299 297 296 294
297 298 300 300 300 299 298 298 298 298 298 297 297 298 298 299 299 299 299 302 306 309 310 313 314 312 311 312 313 313 312 312 311 311 311 310 310 311 311 310 310 310 309 309 308 306 304 302 302 302 303 304 305 304 303 303 301 300 298 296 294 292
297 298 299 300 299 298 297 296 297 297 296 296 297 297 297 298 298 298 298 300 304 307 308 309 311 312 311 312 312 312 312 310 309 310 310 310 310 310 310 310 310 309 308 308 306 304 302 301 301 303 304 304 304 303 303 301 299 298 296 293 291 290
297 298 299 299 298 296 295 295 295 295 295 295 295 296 296 297 298 298 297 299 302 305 305 306 309 312 311 312 312 312 311 309 308 309 310 310 310 310 310 310 309 308 307 305 303 302 301 301 302 303 304 304 304 303 303 300 297 294 292 291 291 290
297 297 298 298 296 295 294 294 295 294 295 295 295 295 296 297 297 297 297 297 299 303 304 304 306 309 310 311 312 311 310 309 309 309 309 309 309 309 309 308 307 306 304 302 301 301 301 301 303 304 304 304 304 303 301 298 295 293 292 291 291 290
296 296 297 296 294 294 293 293 293 294 294 294 294 295 295 296 295 295 295 296 298 302 304 304 303 306 309 311 310 310 309 309 309 309 309 308 308 308 307 306 305 303 302 300 300 300 301 302 303 304 304 305 305 303 300 296 293 292 292 291 290 290
295 295 295 294 293 293 293 293 293 293 294 294 294 294 294 294 294 294 294 296 298 300 303 303 302 303 307 309 309 309 309 309 309 308 308 307 307 306 306 304 303 302 301 301 300 300 301 303 304 304 305 305 305 302 297 293 292 291 291 290 290 290
294 294 294 293 293 292 292 292 293 293 293 293 293 293 293 293 292 293 294 295 296 298 301 302 301 302 305 307 308 309 309 309 308 307 306 306 306 305 304 303 301 301 300 301 300 301 302 304 305 305 304 303 301 297 293 291 291 290 290 290 290 290
295 294 294 293 292 292 292 292 292 292 293 293 292 292 292 292 292 292 293 294 295 297 300 303 302 301 303 306 307 308 308 307 306 305 305 305 305 304 304 303 301 300 300 300 300 301 303 304 304 304 303 302 298 293 290 290 290 290 290 290 290 290
296 295 294 293 292 292 292 292 291 292 292 292 292 291 291 291 291 292 293 294 295 297 299 302 302 302 302 304 306 307 307 307 305 305 304 304 304 304 303 301 300 300 300 299 299 301 303 304 304 304 303 301 296 292 290 290 290 289 289 289 290 290
297 295 294 293 293 292 292 291 291 291 291 291 291 291 290 290 291 291 292 293 295 297 299 300 302 302 302 304 306 306 307 306 305 304 304 304 304 303 302 301 300 300 299 298 299 301 303 304 304 303 302 300 295 291 289 289 289 289 289 289 290 290
298 297 296 294 293 293 292 291 290 291 290 291 291 290 290 290 290 291 292 294 295 297 298 300 302 303 303 304 305 306 306 305 304 304 304 304 304 303 301 300 300 299 298 297 298 301 303 304 303 302 301 298 293 290 289 290 290 290 290 290 290 290
299 298 297 295 294 295 294 291 290 290 290 290 290 290 290 290 290 291 292 294 296 298 299 300 302 303 303 304 305 306 305 305 304 304 303 303 303 302 300 300 299 298 297 297 298 301 303 304 303 302 301 297 292 290 289 290 290 290 290 290 290 290
300 299 297 296 295 296 297 294 290 290 290 290 289 289 290 290 292 293 293 295 297 298 300 301 302 302 303 304 306 306 306 305 304 304 303 303 302 301 300 300 299 298 296 296 298 301 303 303 303 302 300 296 292 290 290 290 290 290 290 291 290 290
300 300 299 297 296 295 297 297 293 290 289 289 289 289 290 291 294 296 296 297 299 300 301 301 301 301 303 305 307 306 306 305 304 304 303 303 302 300 299 299 298 297 296 296 298 300 302 303 303 302 300 297 293 291 290 290 290 290 290 290 290 289
300 300 300 299 298 296 295 296 296 294 291 289 289 290 290 292 296 299 300 300 300 300 301 300 299 301 304 306 306 306 305 305 305 304 303 301 300 299 299 298 297 296 296 296 298 300 302 303 303 302 300 298 294 292 291 291 290 290 290 290 290 289
300 300 300 300 299 298 296 295 296 297 296 293 292 292 292 293 296 298 299 300 299 299 300 300 299 301 303 304 304 304 304 305 304 304 303 301 299 299 298 298 297 296 296 296 297 299 301 302 302 302 300 298 295 292 291 291 290 290 290 290 290 289
300 300 300 300 299 298 297 296 295 297 299 298 296 295 295 294 295 296 297 299 298 300 302 302 301 301 303 303 304 304 304 304 304 304 303 302 301 300 299 298 297 296 296 296 297 299 301 302 302 302 300 298 295 292 291 291 291 290 290 290 290 290
299 300 300 300 300 299 299 298 297 298 299 300 300 299 297 297 297 297 297 299 300 302 304 305 304 304 304 303 302 302 302 302 302 302 303 302 301 301 301 300 298 297 296 296 296 298 300 301 302 301 300 299 297 293 291 292 292 290 289 289 289 289
299 299 300 300 300 300 300 300 299 299 299 300 301 300 299 299 299 299 299 300 300 301 302 302 302 301 301 300 299 299 300 301 302 302 302 302 302 302 301 300 299 297 296 296 296 297 299 300 300 300 300 299 298 295 293 293 293 291 289 289 289 289
300 299 299 299 300 300 300 301 301 300 301 301 300 300 300 300 299 299 299 298 298 299 300 300 300 300 300 300 301 301 302 303 302 302 303 303 302 302 301 300 299 298 297 297 297 298 299 299 300 300 300 299 298 297 296 295 294 292 290 289 289 289
299 299 300 299 299 300 300 300 300 301 301 301 301 300 301 301 300 300 300 300 300 302 303 302 302 303 303 303 304 304 304 304 303 303 304 304 303 302 301 301 300 299 299 298 299 299 300 300 300 300 299 299 299 299 299 297 295 293 293 292 290 289
298 299 300 300 300 300 300 300 300 299 299 300 300 300 300 300 300 301 301 301 302 302 303 303 303 304 304 304 304 305 305 305 305 305 306 306 305 304 303 303 302 301 301 300 300 301 301 302 301 300 300 301 300 300 299 298 296 295 294 293 291 289
298 298 298 299 300 300 300 300 300 299 298 298 299 300 300 300 300 300 300 301 301 301 301 302 303 304 304 304 304 304 304 304 304 305 306 306 306 305 304 304 303 303 302 302 302 302 302 302 302 302 302 302 302 301 300 299 298 295 292 291 292 291
299 298 298 299 299 300 300 300 300 300 299 298 298 299 300 300 300 300 300 300 300 300 300 300 301 302 302 303 304 304 304 304 304 304 305 306 306 306 306 306 305 305 305 304 304 304 303 303 303 304 305 305 304 303 301 300 299 297 294 293 295 296
299 299 300 299 299 299 300 300 300 300 300 299 298 298 298 299 300 300 300 300 299 299 299 299 299 300 300 301 302 302 303 304 304 304 304 305 305 305 306 306 306 306 306 305 305 305 305 305 306 306 307 306 305 304 303 301 300 299 298 297 296 294
300 300 301 301 300 299 299 299 300 300 300 300 299 299 298 298 298 298 299 299 300 300 299 299 299 299 299 300 300 300 301 302 302 302 303 303 303 303 303 303 304 304 304 304 305 305 305 306 306 305 304 303 303 302 301 300 299 297 295 294 292 289
300 300 301 301 301 300 300 299 299 299 300 300 299 299 299 298 298 298 298 299 299 300 300 300 299 299 299 299 299 300 300 300 300 301 302 302 301 301 301 302 302 302 302 303 303 304 303 302 302 301 300 298 297 297 296 295 294 293 292 290 288 286
300 300 300 300 300 300 300 300 300 299 299 299 299 299 299 299 298 298 298 298 298 299 299 299 299 299 298 298 298 298 298 299 299 300 301 301 301 301 301 302 302 301 301 301 301 300 300 299 298 297 297 295 294 293 293 292 291 290 290 288 286 284
300 300 299 300 300 300 300 300 300 299 299 299 299 299 299 299 299 299 299 299 298 297 297 298 299 299 299 299 299 298 298 298 298 299 300 300 300 299 299 300 300 300 299 299 298 298 297 297 296 295 294 293 292 292 291 290 290 289 288 287 285 283
300 300 299 299 299 299 299 300 300 299 299 299 299 299 299 299 299 299 299 299 299 298 297 297 297 298 298 299 299 299 299 299 299 300 300 299 298 297 298 299 299 299 298 298 298 297 296 296 295 293 293 292 291 291 290 289 288 288 287 286 285 284
299 299 299 299 299 299 299 299 299 299 299 299 299 299 298 298 298 299 299 299 298 298 298 298 297 297 297 297 298 299 299 299 300 299 299 299 298 298 299 300 300 300 299 299 299 298 297 296 294 293 292 291 291 290 289 287 286 286 286 285 284 284
299 299 299 299 299 298 298 299 299 299 299 298 298 298 298 298 298 298 298 298 298 298 298 298 297 297 297 297 297 297 297 298 298 298 298 298 298 298 299 299 299 299 299 298 298 298 297 296 295 293 292 291 291 290 288 286 285 286 286 286 286 286
Wind_Speed
29 28 29 29 29 30 31 30 29 31 33 35 38 40 42 44 44 45 46 47 48 48 47 45 44 44 43 43 43 43 42 41 40 38 37 35 32 31 32 31 30 30 30 30 29 27 26 26 27 28 29 31 31 31 31 32 31 30 28 27 26 25
31 31 31 30 31 33 33 34 34 34 35 37 39 41 42 45 46 46 46 47 49 49 48 46 45 44 43 43 43 42 42 41 40 38 37 35 34 33 33 31 30 29 30 30 28 27 27 28 29 30 30 31 31 30 30 30 29 28 27 26 25 24
33 33 32 32 34 35 35 35 37 37 37 38 41 43 44 45 47 48 48 49 49 50 49 47 46 45 43 42 42 41 41 40 38 37 36 36 35 34 33 32 30 30 30 29 28 27 28 29 30 30 30 30 30 29 29 29 28 27 26 25 24 24
35 34 34 33 32 34 36 37 38 39 39 39 41 46 47 46 47 48 49 51 51 50 50 48 46 44 43 42 41 41 40 40 38 37 36 36 34 33 33 32 31 30 30 29 28 28 29 30 30 30 29 29 29 29 29 29 28 26 25 25 25 24
36 35 33 31 30 31 34 36 38 40 40 40 41 47 49 48 47 48 50 52 52 51 50 49 47 44 43 42 41 41 41 41 39 37 36 35 34 34 34 32 32 32 30 29 29 30 30 31 30 29 29 29 30 30 29 28 27 25 25 25 25 23
35 34 31 29 28 28 30 34 37 38 39 39 42 47 49 47 46 47 49 51 53 52 51 50 48 45 43 42 40 40 41 41 39 37 36 35 35 35 34 33 33 33 32 31 32 32 32 32 31 30 30 30 30 29 28 27 26 25 25 24 23 22
34 31 29 27 26 25 26 29 32 34 37 39 42 45 45 45 46 47 47 49 52 52 51 50 48 45 43 42 40 40 41 40 39 38 37 37 36 36 36 36 35 34 34 34 34 34 34 32 32 32 31 30 29 28 27 26 25 25 25 24 23 22
31 28 26 24 23 21 19 20 23 28 33 37 40 41 43 44 45 45 46 48 51 52 50 48 48 46 44 42 41 41 41 40 39 39 39 39 38 38 38 38 37 36 36 35 35 35 34 33 32 32 31 29 29 27 26 25 25 25 24 24 24 23
27 24 22 20 18 14 13 14 17 22 28 33 36 39 42 45 44 44 44 46 49 50 48 47 48 47 44 42 42 41 40 39 40 40 40 40 40 39 39 39 38 37 37 36 36 34 33 33 32 31 30 29 28 26 25 25 26 26 25 25 25 24
23 20 19 17 14 11 11 12 15 21 27 32 36 38 41 43 42 41 42 44 45 47 48 47 46 44 42 42 42 41 40 40 40 40 40 41 41 40 39 39 38 38 37 35 34 34 33 33 32 31 29 27 26 25 25 26 26 27 27 27 26 24
20 17 16 14 11 10 12 15 18 22 28 33 36 37 38 39 38 39 40 42 44 46 46 45 44 44 43 43 42 41 40 41 40 41 41 41 41 40 39 39 38 37 36 36 35 35 34 33 32 30 28 26 26 26 27 27 28 29 28 28 27 25
16 14 14 11 11 12 15 18 21 24 27 31 32 33 34 35 37 38 40 41 41 42 43 44 44 45 44 43 42 41 41 40 41 42 42 41 40 40 39 38 37 36 36 37 37 36 34 33 32 29 28 28 28 28 29 30 30 30 29 28 26 24
15 13 12 12 12 14 16 20 22 23 26 29 30 31 33 35 36 37 38 39 40 41 43 43 43 44 44 43 42 41 39 39 41 42 42 41 40 40 39 37 37 37 38 38 37 36 35 34 32 30 30 30 29 29 29 30 30 29 28 26 25 23
15 13 12 12 13 14 17 20 21 24 26 28 29 31 32 33 33 35 37 38 39 41 42 42 42 42 42 41 40 38 38 40 41 42 41 41 41 40 39 39 39 40 39 39 37 36 36 34 32 31 31 30 30 30 29 29 29 28 28 26 25 24
15 13 12 12 13 15 17 19 21 24 26 27 29 29 30 30 31 33 36 37 38 39 41 41 42 42 41 39 38 37 38 40 41 41 40 41 40 40 41 41 41 41 41 40 39 37 35 33 32 31 30 30 31 31 31 30 29 28 27 26 26 25
14 13 11 11 12 14 16 18 20 22 24 26 27 27 28 29 31 33 34 35 36 38 39 40 41 40 39 37 36 37 39 40 40 40 40 40 40 41 42 43 43 42 42 41 40 38 35 34 32 31 30 31 31 31 31 31 30 29 29 27 27 27
12 12 11 10 11 13 16 18 20 21 23 24 24 26 27 28 30 32 33 34 36 38 39 39 39 39 37 36 37 38 39 39 39 40 40 40 40 42 43 44 44 44 43 42 40 38 36 34 32 31 31 30 31 31 31 31 30 31 30 29 29 29
9 10 10 9 10 11 14 18 20 20 22 23 23 24 26 26 28 30 32 34 36 38 38 39 38 39 38 37 37 38 39 39 40 41 41 41 41 43 44 45 45 45 44 43 41 38 36 34 32 31 31 30 30 31 32 32 32 32 31 31 31 31
7 7 9 10 11 10 12 15 19 21 22 23 24 25 25 26 28 30 32 35 37 38 39 39 39 39 38 36 36 38 39 39 41 41 42 42 43 45 46 46 45 45 45 43 40 37 35 34 32 31 31 31 32 33 33 33 34 34 33 33 32 32
7 7 8 10 11 11 10 12 17 20 22 23 24 25 26 27 28 31 34 36 37 39 39 39 39 38 37 35 36 36 37 39 41 42 42 43 45 47 47 46 46 45 44 41 39 37 35 33 32 32 32 32 32 34 34 35 35 35 35 35 34 34
6 7 8 10 12 12 12 11 13 18 22 24 24 26 28 30 31 33 36 37 38 38 39 39 39 38 36 35 35 35 36 38 40 42 43 45 46 46 45 45 45 44 43 41 38 36 34 32 32 32 32 33 33 35 35 36 37 37 36 36 37 37
6 6 7 8 10 12 13 14 13 15 18 21 24 27 30 31 32 34 36 37 37 37 39 40 40 39 38 37 35 35 37 39 42 44 44 45 44 43 43 43 43 42 40 39 37 36 35 34 34 34 34 35 35 37 37 38 38 38 38 38 38 38
6 4 4 6 9 12 14 16 16 16 17 19 24 27 29 31 32 34 36 38 38 39 39 40 39 39 37 36 36 38 41 43 43 43 42 42 41 41 41 41 40 40 39 39 38 37 37 37 37 37 36 36 37 38 38 39 38 38 38 38 38 38
7 4 4 5 8 11 14 17 18 18 18 20 23 26 28 30 33 35 36 38 39 40 39 38 38 38 39 40 42 44 43 41 39 39 39 40 39 40 40 40 40 41 41 41 41 40 39 39 39 38 37 37 37 38 39 39 39 38 38 38 38 39
9 6 5 5 7 9 13 16 18 19 20 21 21 22 25 28 32 35 37 38 39 40 41 41 42 42 43 44 43 41 38 37 37 37 37 37 38 39 40 41 42 42 43 43 42 42 41 41 41 40 39 38 38 39 40 40 40 40 40 40 40 39
10 9 7 6 6 8 10 12 16 18 20 20 19 19 21 24 26 29 32 34 37 40 41 41 40 40 40 38 36 35 35 36 36 35 36 37 38 40 42 43 43 44 44 44 44 44 43 43 42 42 40 39 39 39 40 40 41 41 41 41 41 40
12 12 11 9 7 7 8 9 12 14 14 15 18 21 22 23 24 25 27 29 32 34 35 35 35 34 33 33 33 33 34 35 35 36 38 39 40 42 43 44 44 44 44 45 46 46 45 43 43 42 41 39 39 40 40 41 42 43 43 43 42 42
14 15 14 12 11 9 8 8 8 7 7 10 15 18 21 24 25 26 28 29 30 31 31 32 33 32 32 32 32 33 34 35 36 38 40 41 43 43 43 43 43 44 46 46 47 46 45 44 44 43 41 40 41 42 42 42 43 44 44 44 44 43
18 17 16 16 15 12 10 9 8 6 7 10 12 14 18 22 25 27 29 30 31 32 33 34 35 34 34 34 34 35 35 36 36 38 40 43 45 45 45 45 46 47 48 48 47 46 46 45 44 43 42 43 44 44 44 44 45 45 46 47 46 45
20 19 17 17 17 16 15 12 9 8 10 11 13 15 17 20 23 26 28 29 31 32 34 35 36 37 37 38 38 38 39 39 40 41 43 45 46 47 48 49 49 49 49 48 47 46 46 46 45 44 44 44 45 45 45 46 46 46 47 48 47 46
19 18 18 18 17 19 20 17 13 11 11 12 14 16 18 19 21 23 25 27 29 31 32 34 35 37 38 39 39 40 41 42 42 43 45 46 47 47 47 46 47 47 46 44 44 44 44 45 45 43 42 42 43 43 44 44 44 43 44 45 45 45
19 17 17 18 19 20 22 22 19 16 15 15 16 17 18 19 21 23 24 26 28 30 31 33 34 36 37 37 38 39 40 39 40 41 42 43 42 42 42 42 42 42 40 40 41 42 42 43 41 39 38 38 38 38 38 38 37 37 37 38 39 42
23 21 20 20 22 23 24 24 24 22 20 19 19 19 20 21 22 23 25 26 27 28 30 32 34 35 36 37 37 38 38 38 39 40 40 40 40 40 40 40 39 38 38 39 40 40 39 38 36 35 34 33 32 33 32 31 30 30 29 29 32 39
29 27 25 24 24 25 26 26 26 26 26 24 23 23 23 24 25 25 25 25 26 27 29 31 33 33 35 36 37 37 38 38 40 41 42 41 40 39 39 39 38 38 39 39 39 38 37 36 34 33 33 31 31 30 29 28 27 26 24 23 28 36
31 31 29 28 27 26 26 26 26 28 29 29 27 27 28 27 27 27 27 26 27 28 29 31 32 33 34 35 36 37 38 39 40 41 41 40 39 38 39 39 39 39 39 38 38 37 35 34 33 32 31 31 30 29 28 28 27 25 24 25 29 36
31 31 31 30 28 27 27 27 27 28 30 31 30 30 31 31 30 29 29 28 29 30 31 32 32 32 33 34 35 36 37 38 38 38 38 38 39 40 41 41 40 40 39 38 38 36 35 35 34 33 32 31 30 29 28 27 26 26 26 29 33 36
31 31 31 30 29 28 29 29 28 27 29 31 32 32 32 34 34 33 31 31 31 32 33 33 33 33 33 34 34 35 35 35 35 36 37 38 39 40 41 40 39 38 38 38 37 36 36 36 35 34 33 32 32 30 28 28 30 31 32 34 37 39
30 31 30 30 30 30 31 31 29 28 28 31 32 33 33 34 36 36 35 34 35 35 35 34 34 34 34 35 35 34 34 35 35 35 37 37 38 39 39 38 37 36 35 35 35 35 36 36 36 35 34 33 32 31 31 34 37 38 39 40 42 43
Wind_Direction
294 288 285 280 275 272 269 265 260 253 248 242 237 236 236 233 228 224 224 224 223 219 218 220 221 220 220 221 223 223 224 224 221 219 218 218 216 215 215 213 212 213 213 212 212 212 212 211 209 207 205 205 205 206 210 215 220 223 225 227 227 227
292 289 286 280 276 272 268 264 259 253 248 243 239 237 235 233 229 225 223 223 225 223 220 219 221 221 220 220 221 221 220 220 218 216 214 212 210 212 214 212 211 212 211 209 209 209 209 207 206 205 204 204 205 209 214 218 220 221 222 224 225 224
289 288 284 280 276 271 266 260 255 252 247 242 239 236 234 233 230 225 222 221 223 225 223 220 219 220 220 219 220 219 219 219 217 215 213 212 210 210 212 211 210 209 208 208 208 207 207 206 205 203 202 203 207 211 215 217 218 219 219 220 220 220
287 286 283 279 273 267 264 258 252 249 245 240 237 234 232 232 231 226 222 220 221 222 223 222 220 219 218 217 218 218 218 217 216 214 214 213 211 210 211 209 207 206 206 206 206 206 206 205 203 201 201 204 208 211 213 215 216 217 218 217 216 216
288 286 284 278 270 264 261 256 250 245 242 238 234 231 230 230 229 227 222 220 220 221 222 222 220 218 217 216 216 216 216 216 214 212 212 212 210 209 208 206 204 203 203 204 205 206 205 202 200 200 202 205 209 211 213 215 216 216 216 216 216 216
289 287 284 279 274 268 260 254 249 242 239 235 230 229 229 227 226 225 221 220 220 220 221 222 221 219 217 216 217 217 215 214 212 209 207 207 208 207 204 202 202 202 202 202 203 203 202 199 198 200 203 206 209 212 214 216 216 215 215 217 218 218
290 287 284 280 277 271 258 251 245 238 234 229 226 227 226 224 225 223 220 218 219 219 220 221 221 220 217 216 217 218 216 214 211 207 204 204 205 204 202 201 202 201 201 201 201 201 199 197 198 201 203 207 209 212 215 216 216 216 216 215 215 214
288 284 282 280 275 265 251 240 233 230 227 222 222 223 220 220 223 222 218 217 217 218 218 218 219 219 217 216 216 217 216 213 209 206 204 203 202 201 201 201 201 200 200 200 199 198 198 197 199 202 204 207 210 212 213 214 215 216 215 213 211 210
286 281 279 277 269 255 238 225 217 215 215 214 217 218 217 219 221 219 217 217 217 217 217 216 218 219 217 215 216 216 215 212 210 207 203 202 202 201 201 201 200 199 198 198 197 197 197 199 201 203 206 208 211 212 212 213 214 213 211 210 211 210
282 278 279 272 258 240 224 217 209 206 210 214 215 216 218 219 220 218 216 216 215 215 216 217 217 217 216 215 215 215 213 211 210 207 203 202 202 201 201 201 200 198 197 196 197 197 199 201 202 205 207 209 211 212 214 215 214 212 210 210 210 209
276 272 275 263 239 224 219 216 212 210 214 217 218 219 220 218 216 214 213 213 214 213 214 216 215 213 214 215 214 213 212 211 209 206 203 202 201 201 201 201 199 197 195 195 197 199 200 202 204 205 207 208 210 211 212 214 213 212 211 210 209 208
271 264 262 244 220 217 220 222 220 218 217 217 218 217 216 213 211 211 211 212 212 211 212 214 214 213 213 213 212 211 211 209 208 205 203 201 201 201 201 200 198 196 196 197 198 199 201 203 205 206 207 209 211 211 211 211 211 211 211 211 210 210
267 257 247 230 216 216 222 224 222 218 214 214 215 213 211 211 209 209 210 209 207 208 210 212 213 213 213 212 211 210 209 208 206 205 203 200 200 201 201 199 196 195 198 199 199 200 202 204 205 206 208 209 212 213 213 213 212 211 211 212 212 212
268 256 243 226 213 215 222 222 217 215 213 212 213 212 211 211 209 208 208 207 207 207 210 212 213 214 214 212 210 208 208 208 206 204 202 200 200 199 198 197 196 196 198 199 201 203 204 206 207 208 209 211 213 214 214 215 215 215 213 213 212 214
273 259 244 226 214 217 225 222 214 213 214 213 214 214 212 209 208 208 209 209 210 210 210 211 213 215 216 213 210 208 208 209 207 204 202 201 200 198 197 197 196 197 199 200 202 205 207 209 210 211 212 213 213 213 213 215 216 216 216 216 215 216
278 264 246 226 219 226 232 225 215 212 212 214 215 213 212 210 207 208 210 210 212 212 212 212 213 216 217 214 210 209 209 209 207 204 202 201 200 199 198 198 198 199 200 202 204 206 209 210 212 213 214 215 215 215 215 216 216 217 218 217 217 219
282 273 255 228 218 229 232 221 215 212 210 212 213 210 210 210 209 209 210 210 211 212 212 213 214 216 217 214 211 210 209 208 207 204 202 201 201 201 201 201 201 201 202 203 205 208 210 212 213 214 216 217 217 217 217 218 219 219 219 219 219 221
279 275 265 238 217 229 236 222 213 211 209 209 210 209 209 210 210 210 209 208 210 211 212 213 215 217 216 212 210 210 209 208 207 205 202 201 202 203 204 204 203 203 204 205 207 209 212 213 214 215 216 218 218 219 219 220 221 221 221 221 222 223
269 258 260 248 226 228 240 231 217 212 212 211 207 206 208 209 209 209 207 206 208 210 211 213 215 216 215 212 211 211 210 209 207 205 203 202 204 205 206 206 206 206 207 207 208 210 214 215 215 216 217 218 219 221 221 222 223 223 224 224 225 226
275 250 244 245 236 225 226 231 224 215 213 213 209 206 206 207 207 206 203 204 206 209 211 213 215 215 214 213 214 214 213 211 209 207 205 204 206 207 207 207 208 209 209 209 211 213 216 218 218 218 220 221 222 224 225 225 225 225 226 226 227 228
286 260 241 237 235 224 213 218 227 222 217 214 211 209 206 204 203 203 203 203 206 209 212 213 215 215 215 215 217 217 216 214 212 210 208 208 210 210 209 210 210 210 211 211 213 216 219 222 222 222 223 224 225 227 228 228 228 228 228 228 229 230
304 281 259 239 231 226 215 207 214 226 226 219 214 212 208 204 201 201 204 206 207 210 212 213 214 215 216 216 217 218 218 217 216 214 212 212 213 212 212 213 214 214 214 215 216 218 221 223 223 223 224 225 226 229 230 231 231 231 231 232 232 234
324 293 265 234 221 223 219 210 208 218 226 226 221 215 210 207 204 202 204 206 207 210 212 213 214 217 218 218 219 219 220 220 219 218 216 216 215 214 214 216 216 217 218 218 220 221 222 224 225 224 225 227 228 230 232 234 235 236 236 236 238 239
335 310 271 238 220 220 221 217 212 212 217 224 226 220 212 208 206 205 206 207 209 212 214 214 216 218 219 219 219 220 221 222 223 222 221 219 218 216 216 217 217 218 219 220 221 223 224 226 227 227 227 228 229 231 234 236 238 239 240 240 241 242
327 318 293 257 232 226 226 225 220 214 213 218 223 224 221 214 209 207 209 210 211 214 215 215 216 217 219 221 222 223 224 225 225 224 223 222 221 219 218 218 218 219 220 222 223 225 227 228 229 230 230 230 230 232 234 237 240 241 241 243 244 245
306 305 296 276 249 235 232 233 231 225 220 216 212 214 221 223 221 219 217 216 216 216 217 219 220 222 224 227 228 229 228 227 226 223 222 221 220 219 219 219 219 220 222 224 225 227 228 229 230 232 232 232 233 235 236 239 242 243 243 244 246 247
290 284 281 276 264 249 239 237 238 237 233 224 214 210 211 215 220 224 225 225 224 222 222 224 226 227 230 231 232 232 231 231 228 223 221 220 220 220 221 221 222 223 224 226 228 229 230 231 232 233 234 235 236 238 239 240 241 243 245 246 246 248
282 274 270 268 265 261 254 245 240 238 232 225 221 219 217 215 215 218 220 222 223 222 222 224 225 226 228 229 231 232 232 232 230 226 224 222 222 223 224 224 225 226 227 228 230 231 232 233 234 235 236 237 238 239 240 240 241 243 246 247 247 248
277 270 265 261 259 261 263 259 251 230 209 208 211 216 221 222 222 221 220 219 219 219 218 219 221 222 224 225 227 228 229 229 229 228 226 225 224 224 224 225 226 227 229 230 232 233 235 236 236 236 237 238 240 240 240 241 241 241 242 244 246 248
274 268 265 261 256 255 258 260 258 238 220 213 209 209 215 221 224 226 226 224 224 223 221 221 221 220 221 223 223 224 226 226 225 225 225 226 226 225 225 226 227 229 231 232 234 236 238 239 239 239 239 240 242 243 243 243 243 242 242 245 249 251
266 263 266 265 258 253 253 254 253 244 233 227 220 216 218 220 221 225 226 226 227 227 226 226 226 225 225 226 226 227 228 228 228 228 228 228 229 230 231 232 233 235 237 239 240 242 243 245 246 247 248 249 250 251 251 251 252 252 251 251 252 251
261 256 264 270 266 257 252 250 248 244 240 236 231 228 228 225 222 222 223 224 226 227 226 227 228 228 228 229 230 232 233 233 235 236 236 236 237 237 238 239 241 243 244 246 247 248 249 251 254 255 255 255 255 256 256 257 258 258 257 255 252 249
267 259 262 272 273 264 257 253 248 243 241 239 237 236 236 233 229 227 225 225 226 227 227 227 227 227 228 229 230 232 233 234 236 238 239 240 240 241 242 243 244 244 245 246 247 248 249 250 251 251 250 249 250 251 252 253 254 254 254 253 248 243
275 268 268 275 276 267 260 256 252 245 240 239 240 240 239 238 237 236 233 232 231 229 228 228 229 229 229 230 230 231 231 232 234 236 237 238 239 241 243 243 244 244 244 244 245 246 246 245 245 245 245 244 244 244 245 246 247 247 247 246 242 239
277 274 274 275 273 265 258 257 255 248 241 239 239 240 241 242 243 243 241 238 236 232 230 230 230 230 230 231 232 232 232 232 233 235 236 237 238 240 241 241 241 241 241 242 242 242 243 243 242 243 243 242 242 242 242 243 244 242 240 239 237 236
274 274 274 272 268 262 259 259 257 250 244 240 240 241 242 243 245 246 245 243 240 237 235 234 232 231 231 232 233 233 233 234 235 236 236 236 235 236 237 238 238 237 237 239 239 239 240 240 240 240 240 240 241 242 241 243 244 242 239 238 239 238
275 274 273 272 268 264 260 259 257 252 246 242 242 245 246 245 245 244 244 244 243 242 241 240 238 236 235 234 234 234 234 235 236 236 236 236 236 236 238 239 240 238 237 237 238 237 237 237 237 238 238 239 239 240 240 242 242 239 236 235 236 238
278 275 274 272 269 266 262 260 256 254 251 246 245 247 249 248 246 244 243 243 243 242 243 242 241 240 239 238 237 237 236 236 236 236 236 237 238 238 239 241 242 241 241 241 241 240 240 239 238 238 238 238 239 238 238 239 238 237 235 235 235 236